This is the latest recevied weather packets stored in our database for station/object KC0AFB. If no packets are shown the sender has not sent any weather packets the latest 10 day(s).
| Time | Temp. | Humidity | Pressure | Rain* | Wind** | Luminosity | Snow |
|---|---|---|---|---|---|---|---|
| 1778137350 | 0° C | 65% | 1011.7 hPa | 0 mm | - | 0 W/m² | - |
| 1778137047 | 0° C | 65% | 1011.7 hPa | 0 mm | - | 0 W/m² | - |
| 1778136744 | 0.56° C | 64% | 1011.9 hPa | 0 mm | - | 0 W/m² | - |
| 1778136441 | 0.56° C | 64% | 1012 hPa | 0 mm | - | 0 W/m² | - |
| 1778136135 | 1.11° C | 62% | 1011.7 hPa | 0 mm | - | 0 W/m² | - |
| 1778135831 | 1.11° C | 62% | 1011.8 hPa | 0 mm | - | 0 W/m² | - |
| 1778135528 | 1.11° C | 63% | 1012.2 hPa | 0 mm | - | 0 W/m² | - |
| 1778135225 | 1.11° C | 62% | 1011.9 hPa | 0 mm | - | 0 W/m² | - |
| 1778134923 | 1.11° C | 62% | 1011.9 hPa | 0 mm | - | 0 W/m² | - |
| 1778134621 | 1.11° C | 62% | 1011.8 hPa | 0 mm | - | 0 W/m² | - |
| 1778134318 | 1.11° C | 63% | 1011.9 hPa | 0 mm | - | 0 W/m² | - |
| 1778134016 | 0.56° C | 63% | 1012 hPa | 0 mm | - | 0 W/m² | - |
| 1778133712 | 1.11° C | 62% | 1012.1 hPa | 0 mm | - | 0 W/m² | - |
| 1778133408 | 1.11° C | 62% | 1011.7 hPa | 0 mm | - | 0 W/m² | - |
| 1778133104 | 1.11° C | 61% | 1011.9 hPa | 0 mm | - | 0 W/m² | - |
| 1778132800 | 1.11° C | 61% | 1012 hPa | 0 mm | - | 0 W/m² | - |
| 1778132497 | 1.67° C | 61% | 1012 hPa | 0 mm | - | 0 W/m² | - |
| 1778132195 | 1.67° C | 61% | 1012 hPa | 0 mm | - | 0 W/m² | - |
| 1778131893 | 1.67° C | 61% | 1012 hPa | 0 mm | - | 0 W/m² | - |
| 1778131591 | 1.67° C | 60% | 1012.1 hPa | 0 mm | - | 0 W/m² | - |
| 1778131287 | 1.67° C | 60% | 1012 hPa | 0 mm | - | 0 W/m² | - |
| 1778130985 | 2.22° C | 59% | 1012 hPa | 0 mm | - | 0 W/m² | - |
| 1778130681 | 2.22° C | 58% | 1011.9 hPa | 0 mm | - | 0 W/m² | - |
| 1778130378 | 2.22° C | 58% | 1012.1 hPa | 0 mm | - | 0 W/m² | - |
| 1778130075 | 2.22° C | 58% | 1012 hPa | 0 mm | - | 0 W/m² | - |
* Rain latest hour (hover to see other rain measurements)
** Current wind speed in m/s (hover to see current wind gust speed)